User: anonymous   Login
Location: Owatonna
(44.0840°N, 93.2260°W)
Time: 08:49:12
(UTC-05:00)
Language:

Tiangong - Orbit

View from above orbital plane
View from above orbital plane
View from above satellite
View from above satellite

Ground track
Ground track

The orbit data is extracted from the following two-line orbital elements,

1 48274U 21035A   22279.37008970  .00027308  00000-0  31565-3 0  9995
2 48274  41.4730 261.4715 0001827  19.2189 132.5425 15.61256650 82155
Epoch (UTC): 06 October 2022 08:52:55
Eccentricity: 0.0001827
inclination: 41.4730°
perigee height: 383 km
apogee height: 385 km
right ascension of ascending node: 261.4715°
argument of perigee: 19.2189°
revolutions per day: 15.61256650
mean anomaly at epoch: 132.5425°
orbit number at epoch: 8215

The dashed part of the orbit path shows where the satellite is in the earth's shadow,  

DLR